Location: *
(38.4303°S, 157.0822°W)
Time: 21:05:20
(UTC+00:00)

DMSP B5D2-2 - Pass Details

Date: 07 August 2024
Orbit: 787 x 802 km, 98.3° (Epoch: 16 September)

Event Time Altitude Azimuth Distance (km) Brightness Sun altitude
Rises 14:11:09 0° 155° (SSE) 3,346 7.7 -37.8°
Reaches altitude 10° 14:13:51 10° 144° (SE) 2,405 7.0 -37.2°
Maximum altitude 14:18:24 28° 85° (E) 1,466 5.9 -36.4°
Enters shadow 14:20:48 20° 44° (NE) 1,771 6.1 -35.9°
